Time,TemperatureF,DewpointF,PressureIn,WindDirection,WindDirectionDegrees,WindSpeedMPH,WindSpeedGustMPH,Humidity,HourlyPrecipIn,Conditions,Clouds,dailyrainin,SoftwareType,DateUTC
2013-01-23 00:02:00,6.1,0.7,30.21,North,0,1.8,2.5,78,0.00,,,0.00,WUHU216HW,2013-01-23 05:02:00,
2013-01-23 00:03:00,6.1,0.7,30.21,WSW,248,1.1,2.5,78,0.00,,,0.00,WUHU216HW,2013-01-23 05:03:00,
2013-01-23 00:08:00,6.1,0.7,30.21,West,270,0.7,2.7,78,0.00,,,0.00,WUHU216HW,2013-01-23 05:08:00,
2013-01-23 00:13:00,6.3,0.9,30.21,North,0,1.3,3.1,78,0.00,,,0.00,WUHU216HW,2013-01-23 05:13:00,
2013-01-23 00:18:00,6.5,1.1,30.21,West,270,1.8,3.1,78,0.00,,,0.00,WUHU216HW,2013-01-23 05:18:00,
2013-01-23 00:23:00,6.7,0.9,30.20,North,0,4.0,4.0,77,0.00,,,0.00,WUHU216HW,2013-01-23 05:23:00,
2013-01-23 00:28:00,6.8,0.8,30.21,WSW,248,0.9,4.0,76,0.00,,,0.00,WUHU216HW,2013-01-23 05:28:00,
2013-01-23 00:33:00,6.8,0.8,30.20,NNW,338,1.3,3.4,76,0.00,,,0.00,WUHU216HW,2013-01-23 05:33:00,
2013-01-23 00:38:00,6.8,0.8,30.20,WSW,248,1.1,4.3,76,0.00,,,0.00,WUHU216HW,2013-01-23 05:38:00,
2013-01-23 00:43:00,6.8,0.8,30.20,North,0,2.5,4.3,76,0.00,,,0.00,WUHU216HW,2013-01-23 05:43:00,
2013-01-23 00:48:00,6.8,0.8,30.20,NNW,338,0.4,5.4,76,0.00,,,0.00,WUHU216HW,2013-01-23 05:48:00,
2013-01-23 00:54:00,6.8,0.8,30.21,West,270,0.9,5.4,76,0.00,,,0.00,WUHU216HW,2013-01-23 05:54:00,
2013-01-23 00:59:00,6.8,0.8,30.20,NNW,338,0.4,3.4,76,0.00,,,0.00,WUHU216HW,2013-01-23 05:59:00,
2013-01-23 01:04:00,6.7,0.6,30.21,NNE,23,1.8,3.1,76,0.00,,,0.00,WUHU216HW,2013-01-23 06:04:00,
2013-01-23 01:09:00,6.5,0.5,30.21,North,0,5.1,5.1,76,0.00,,,0.00,WUHU216HW,2013-01-23 06:09:00,
2013-01-23 01:14:00,6.3,0.3,30.20,WNW,293,1.1,5.1,76,0.00,,,0.00,WUHU216HW,2013-01-23 06:14:00,
2013-01-23 01:19:00,6.3,0.3,30.21,WNW,293,0.7,1.1,76,0.00,,,0.00,WUHU216HW,2013-01-23 06:19:00,
2013-01-23 01:24:00,6.1,0.1,30.21,West,270,1.6,2.5,76,0.00,,,0.00,WUHU216HW,2013-01-23 06:24:00,
2013-01-23 01:29:00,6.1,0.1,30.20,NW,315,1.1,5.6,76,0.00,,,0.00,WUHU216HW,2013-01-23 06:29:00,
2013-01-23 01:34:00,6.1,0.1,30.20,NW,315,0.9,5.6,76,0.00,,,0.00,WUHU216HW,2013-01-23 06:34:00,
2013-01-23 01:39:00,6.3,0.3,30.20,NNW,338,1.1,3.4,76,0.00,,,0.00,WUHU216HW,2013-01-23 06:39:00,
2013-01-23 01:44:00,6.1,0.1,30.20,North,0,2.5,4.9,76,0.00,,,0.00,WUHU216HW,2013-01-23 06:44:00,
2013-01-23 01:49:00,6.1,-0.2,30.20,North,0,2.9,4.9,75,0.00,,,0.00,WUHU216HW,2013-01-23 06:49:00,
2013-01-23 01:54:00,6.1,0.1,30.20,North,0,1.8,2.9,76,0.00,,,0.00,WUHU216HW,2013-01-23 06:54:00,
2013-01-23 01:59:00,6.1,0.1,30.21,West,270,1.8,3.6,76,0.00,,,0.00,WUHU216HW,2013-01-23 06:59:00,
2013-01-23 02:04:00,6.1,0.1,30.20,WNW,293,0.7,3.6,76,0.00,,,0.00,WUHU216HW,2013-01-23 07:04:00,
2013-01-23 02:10:00,5.9,-0.4,30.21,NW,315,1.8,1.8,75,0.00,,,0.00,WUHU216HW,2013-01-23 07:10:00,
2013-01-23 02:15:00,5.8,-0.5,30.21,West,270,0.7,1.8,75,0.00,,,0.00,WUHU216HW,2013-01-23 07:15:00,
2013-01-23 02:20:00,5.6,-0.7,30.21,North,0,0.9,3.4,75,0.00,,,0.00,WUHU216HW,2013-01-23 07:20:00,
2013-01-23 02:25:00,5.6,-0.7,30.22,North,0,1.1,3.4,75,0.00,,,0.00,WUHU216HW,2013-01-23 07:25:00,
2013-01-23 02:30:00,5.6,-0.7,30.22,North,0,0.2,1.1,75,0.00,,,0.00,WUHU216HW,2013-01-23 07:30:00,
2013-01-23 02:35:00,5.4,-0.6,30.22,West,270,1.1,1.8,76,0.00,,,0.00,WUHU216HW,2013-01-23 07:35:00,
2013-01-23 02:40:00,5.4,-0.9,30.22,North,0,0.7,2.7,75,0.00,,,0.00,WUHU216HW,2013-01-23 07:40:00,
2013-01-23 02:45:00,5.4,-0.9,30.22,SSE,158,0.4,3.4,75,0.00,,,0.00,WUHU216HW,2013-01-23 07:45:00,
2013-01-23 02:50:00,5.2,-0.8,30.22,WNW,293,0.9,3.4,76,0.00,,,0.00,WUHU216HW,2013-01-23 07:50:00,
2013-01-23 02:55:00,5.2,-1.1,30.22,NNE,23,1.1,1.1,75,0.00,,,0.00,WUHU216HW,2013-01-23 07:55:00,
2013-01-23 03:00:00,5.0,-1.0,30.22,North,0,1.1,2.0,76,0.00,,,0.00,WUHU216HW,2013-01-23 08:00:00,
2013-01-23 03:06:00,5.0,-1.0,30.22,NNW,338,0.4,2.0,76,0.00,,,0.00,WUHU216HW,2013-01-23 08:06:00,
2013-01-23 03:11:00,5.0,-1.0,30.22,North,0,2.0,3.4,76,0.00,,,0.00,WUHU216HW,2013-01-23 08:11:00,
2013-01-23 03:16:00,5.0,-1.0,30.22,West,270,0.4,2.0,76,0.00,,,0.00,WUHU216HW,2013-01-23 08:16:00,
2013-01-23 03:21:00,5.0,-1.0,30.21,North,0,0.4,1.8,76,0.00,,,0.00,WUHU216HW,2013-01-23 08:21:00,
2013-01-23 03:27:00,4.9,-1.2,30.21,North,0,1.8,1.8,76,0.00,,,0.00,WUHU216HW,2013-01-23 08:27:00,
2013-01-23 03:32:00,4.9,-1.2,30.21,WNW,293,0.4,1.8,76,0.00,,,0.00,WUHU216HW,2013-01-23 08:32:00,
2013-01-23 03:37:00,4.9,-1.2,30.21,North,0,1.6,2.2,76,0.00,,,0.00,WUHU216HW,2013-01-23 08:37:00,
2013-01-23 03:42:00,4.9,-1.2,30.21,NNE,23,0.4,2.2,76,0.00,,,0.00,WUHU216HW,2013-01-23 08:42:00,
2013-01-23 03:47:00,4.7,-1.3,30.21,North,0,0.9,3.8,76,0.00,,,0.00,WUHU216HW,2013-01-23 08:47:00,
2013-01-23 03:52:00,4.7,-1.6,30.21,North,0,4.0,4.9,75,0.00,,,0.00,WUHU216HW,2013-01-23 08:52:00,
2013-01-23 03:57:00,4.7,-1.6,30.21,NNW,338,1.1,4.9,75,0.00,,,0.00,WUHU216HW,2013-01-23 08:57:00,
2013-01-23 04:03:00,4.7,-1.6,30.21,NNE,23,2.7,3.1,75,0.00,,,0.00,WUHU216HW,2013-01-23 09:03:00,
2013-01-23 04:08:00,4.7,-1.6,30.21,SSW,203,0.2,4.3,75,0.00,,,0.00,WUHU216HW,2013-01-23 09:08:00,
2013-01-23 04:13:00,4.5,-1.5,30.21,West,270,0.4,4.3,76,0.00,,,0.00,WUHU216HW,2013-01-23 09:13:00,
2013-01-23 04:18:00,4.3,-2.0,30.20,WSW,248,0.0,2.2,75,0.00,,,0.00,WUHU216HW,2013-01-23 09:18:00,
2013-01-23 04:23:00,4.3,-2.0,30.20,WSW,248,0.2,0.7,75,0.00,,,0.00,WUHU216HW,2013-01-23 09:23:00,
2013-01-23 04:28:00,4.0,-2.2,30.21,North,0,0.4,0.7,75,0.00,,,0.00,WUHU216HW,2013-01-23 09:28:00,
2013-01-23 04:33:00,4.0,-2.2,30.21,NNW,338,0.4,0.9,75,0.00,,,0.00,WUHU216HW,2013-01-23 09:33:00,
2013-01-23 04:38:00,4.0,-2.2,30.21,NNW,338,0.2,1.1,75,0.00,,,0.00,WUHU216HW,2013-01-23 09:38:00,
2013-01-23 04:43:00,4.0,-2.2,30.21,North,0,0.7,1.1,75,0.00,,,0.00,WUHU216HW,2013-01-23 09:43:00,
2013-01-23 04:48:00,3.8,-2.1,30.21,West,270,0.4,2.0,76,0.00,,,0.00,WUHU216HW,2013-01-23 09:48:00,
2013-01-23 04:53:00,4.0,-2.0,30.21,WNW,293,0.2,2.0,76,0.00,,,0.00,WUHU216HW,2013-01-23 09:53:00,
2013-01-23 04:58:00,3.8,-2.1,30.21,WNW,293,0.2,1.8,76,0.00,,,0.00,WUHU216HW,2013-01-23 09:58:00,
2013-01-23 05:03:00,3.8,-2.1,30.21,NNW,338,0.4,1.8,76,0.00,,,0.00,WUHU216HW,2013-01-23 10:03:00,
2013-01-23 05:08:00,3.8,-2.1,30.21,WNW,293,0.4,1.1,76,0.00,,,0.00,WUHU216HW,2013-01-23 10:08:00,
2013-01-23 05:13:00,3.8,-2.1,30.21,NW,315,0.9,0.9,76,0.00,,,0.00,WUHU216HW,2013-01-23 10:13:00,
2013-01-23 05:18:00,4.0,-2.0,30.21,NW,315,0.9,1.3,76,0.00,,,0.00,WUHU216HW,2013-01-23 10:18:00,
2013-01-23 05:23:00,4.0,-2.0,30.21,NNW,338,0.4,1.3,76,0.00,,,0.00,WUHU216HW,2013-01-23 10:23:00,
2013-01-23 05:28:00,4.0,-2.0,30.21,North,0,1.1,1.3,76,0.00,,,0.00,WUHU216HW,2013-01-23 10:28:00,
2013-01-23 05:34:00,4.0,-2.0,30.21,West,270,0.7,1.3,76,0.00,,,0.00,WUHU216HW,2013-01-23 10:34:00,
2013-01-23 05:39:00,4.0,-2.0,30.21,WSW,248,0.4,2.5,76,0.00,,,0.00,WUHU216HW,2013-01-23 10:39:00,
2013-01-23 05:44:00,4.1,-1.8,30.21,North,0,0.4,3.4,76,0.00,,,0.00,WUHU216HW,2013-01-23 10:44:00,
2013-01-23 05:49:00,4.1,-1.8,30.21,NW,315,1.1,3.4,76,0.00,,,0.00,WUHU216HW,2013-01-23 10:49:00,
2013-01-23 05:54:00,4.1,-1.8,30.21,SW,225,0.0,1.6,76,0.00,,,0.00,WUHU216HW,2013-01-23 10:54:00,
2013-01-23 05:59:00,4.1,-1.8,30.20,NNW,338,1.1,1.3,76,0.00,,,0.00,WUHU216HW,2013-01-23 10:59:00,
2013-01-23 06:04:00,4.1,-1.8,30.20,WNW,293,0.9,2.2,76,0.00,,,0.00,WUHU216HW,2013-01-23 11:04:00,
2013-01-23 06:09:00,4.1,-1.8,30.20,NW,315,0.0,3.4,76,0.00,,,0.00,WUHU216HW,2013-01-23 11:09:00,
2013-01-23 06:14:00,4.1,-1.8,30.20,SSW,203,0.4,4.0,76,0.00,,,0.00,WUHU216HW,2013-01-23 11:14:00,
2013-01-23 06:19:00,4.3,-2.0,30.20,West,270,1.1,4.0,75,0.00,,,0.00,WUHU216HW,2013-01-23 11:19:00,
2013-01-23 06:24:00,4.3,-1.6,30.20,WNW,293,0.4,2.5,76,0.00,,,0.00,WUHU216HW,2013-01-23 11:24:00,
2013-01-23 06:29:00,4.7,-1.3,30.21,West,270,1.1,4.5,76,0.00,,,0.00,WUHU216HW,2013-01-23 11:29:00,
2013-01-23 06:34:00,4.7,-1.6,30.21,SW,225,1.1,4.5,75,0.00,,,0.00,WUHU216HW,2013-01-23 11:34:00,
2013-01-23 06:39:00,4.7,-1.6,30.21,North,0,0.7,2.5,75,0.00,,,0.00,WUHU216HW,2013-01-23 11:39:00,
2013-01-23 06:44:00,4.7,-1.6,30.21,NW,315,0.4,2.5,75,0.00,,,0.00,WUHU216HW,2013-01-23 11:44:00,
2013-01-23 06:50:00,4.5,-1.8,30.21,WSW,248,0.4,1.3,75,0.00,,,0.00,WUHU216HW,2013-01-23 11:50:00,
2013-01-23 06:55:00,4.5,-1.8,30.21,North,0,0.9,1.3,75,0.00,,,0.00,WUHU216HW,2013-01-23 11:55:00,
2013-01-23 07:00:00,4.3,-2.0,30.21,North,0,0.4,0.9,75,0.00,,,0.00,WUHU216HW,2013-01-23 12:00:00,
2013-01-23 07:05:00,4.1,-2.2,30.21,NNW,338,0.2,0.4,75,0.00,,,0.00,WUHU216HW,2013-01-23 12:05:00,
2013-01-23 07:10:00,4.1,-2.2,30.21,North,0,1.1,1.1,75,0.00,,,0.00,WUHU216HW,2013-01-23 12:10:00,
2013-01-23 07:15:00,4.1,-1.8,30.21,NW,315,1.1,4.0,76,0.00,,,0.00,WUHU216HW,2013-01-23 12:15:00,
2013-01-23 07:20:00,4.3,-1.6,30.22,ESE,113,0.2,4.0,76,0.00,,,0.00,WUHU216HW,2013-01-23 12:20:00,
2013-01-23 07:25:00,4.3,-1.6,30.22,North,0,0.0,3.4,76,0.00,,,0.00,WUHU216HW,2013-01-23 12:25:00,
2013-01-23 07:30:00,4.1,-2.2,30.22,North,0,0.4,1.1,75,0.00,,,0.00,WUHU216HW,2013-01-23 12:30:00,
2013-01-23 07:35:00,4.0,-2.2,30.22,NW,315,0.9,1.8,75,0.00,,,0.00,WUHU216HW,2013-01-23 12:35:00,
2013-01-23 07:40:00,4.0,-2.2,30.23,NW,315,0.0,2.5,75,0.00,,,0.00,WUHU216HW,2013-01-23 12:40:00,
2013-01-23 07:45:00,4.0,-2.0,30.23,North,0,0.4,3.8,76,0.00,,,0.00,WUHU216HW,2013-01-23 12:45:00,
2013-01-23 07:50:00,4.1,-1.8,30.22,NNW,338,0.9,3.8,76,0.00,,,0.00,WUHU216HW,2013-01-23 12:50:00,
2013-01-23 07:55:00,4.1,-1.8,30.22,North,0,2.2,2.2,76,0.00,,,0.00,WUHU216HW,2013-01-23 12:55:00,
2013-01-23 08:00:00,4.3,-2.0,30.22,North,0,1.1,2.2,75,0.00,,,0.00,WUHU216HW,2013-01-23 13:00:00,
2013-01-23 08:05:00,4.5,-1.8,30.22,West,270,0.4,2.9,75,0.00,,,0.00,WUHU216HW,2013-01-23 13:05:00,
2013-01-23 08:10:00,4.5,-1.8,30.22,North,0,2.5,2.9,75,0.00,,,0.00,WUHU216HW,2013-01-23 13:10:00,
2013-01-23 08:15:00,4.9,-1.4,30.22,WNW,293,1.6,2.9,75,0.00,,,0.00,WUHU216HW,2013-01-23 13:15:00,
2013-01-23 08:20:00,5.2,-1.1,30.22,WNW,293,0.4,2.2,75,0.00,,,0.00,WUHU216HW,2013-01-23 13:20:00,
2013-01-23 08:25:00,5.4,-0.9,30.22,North,0,0.4,1.1,75,0.00,,,0.00,WUHU216HW,2013-01-23 13:25:00,
2013-01-23 08:30:00,5.6,-0.7,30.22,NNW,338,0.4,3.8,75,0.00,,,0.00,WUHU216HW,2013-01-23 13:30:00,
2013-01-23 08:35:00,5.9,-0.4,30.22,NNW,338,0.9,3.8,75,0.00,,,0.00,WUHU216HW,2013-01-23 13:35:00,
2013-01-23 08:40:00,6.1,-0.2,30.22,West,270,0.9,5.4,75,0.00,,,0.00,WUHU216HW,2013-01-23 13:40:00,
2013-01-23 08:46:00,6.7,0.1,30.22,WNW,293,1.3,6.0,74,0.00,,,0.00,WUHU216HW,2013-01-23 13:46:00,
2013-01-23 08:50:00,7.0,0.2,30.23,NNE,23,6.0,6.0,73,0.00,,,0.00,WUHU216HW,2013-01-23 13:50:00,
2013-01-23 08:56:00,7.2,0.4,30.23,NNE,23,4.0,6.0,73,0.00,,,0.00,WUHU216HW,2013-01-23 13:56:00,
2013-01-23 09:01:00,7.6,0.7,30.23,NNE,23,3.4,4.0,73,0.00,,,0.00,WUHU216HW,2013-01-23 14:01:00,
2013-01-23 09:06:00,7.7,0.5,30.23,West,270,2.7,3.4,72,0.00,,,0.00,WUHU216HW,2013-01-23 14:06:00,
2013-01-23 09:11:00,8.1,0.6,30.23,NNE,23,5.4,5.4,71,0.00,,,0.00,WUHU216HW,2013-01-23 14:11:00,
2013-01-23 09:16:00,8.3,0.5,30.23,West,270,0.7,5.4,70,0.00,,,0.00,WUHU216HW,2013-01-23 14:16:00,
2013-01-23 09:21:00,8.6,0.9,30.23,North,0,5.1,5.1,70,0.00,,,0.00,WUHU216HW,2013-01-23 14:21:00,
2013-01-23 09:26:00,8.8,1.1,30.23,North,0,3.1,5.1,70,0.00,,,0.00,WUHU216HW,2013-01-23 14:26:00,
2013-01-23 09:31:00,9.0,1.3,30.23,NNE,23,8.9,8.9,70,0.00,,,0.00,WUHU216HW,2013-01-23 14:31:00,
2013-01-23 09:36:00,9.4,1.2,30.23,North,0,1.6,8.9,69,0.00,,,0.00,WUHU216HW,2013-01-23 14:36:00,
2013-01-23 09:41:00,9.7,1.2,30.23,North,0,5.6,5.6,68,0.00,,,0.00,WUHU216HW,2013-01-23 14:41:00,
2013-01-23 09:46:00,9.9,0.7,30.23,North,0,5.8,6.5,66,0.00,,,0.00,WUHU216HW,2013-01-23 14:46:00,
2013-01-23 09:51:00,9.9,1.1,30.23,North,0,4.7,6.5,67,0.00,,,0.00,WUHU216HW,2013-01-23 14:51:00,
2013-01-23 09:56:00,10.3,1.7,30.23,North,0,1.8,7.8,68,0.00,,,0.00,WUHU216HW,2013-01-23 14:56:00,
2013-01-23 10:01:00,10.4,1.5,30.23,NNE,23,2.0,7.8,67,0.00,,,0.00,WUHU216HW,2013-01-23 15:01:00,
2013-01-23 10:06:00,10.4,1.3,30.23,WNW,293,0.7,6.7,66,0.00,,,0.00,WUHU216HW,2013-01-23 15:06:00,
2013-01-23 10:11:00,10.8,1.5,30.23,SW,225,2.0,7.4,66,0.00,,,0.00,WUHU216HW,2013-01-23 15:11:00,
2013-01-23 10:16:00,11.2,1.3,30.23,West,270,3.6,7.4,64,0.00,,,0.00,WUHU216HW,2013-01-23 15:16:00,
2013-01-23 10:21:00,11.3,2.1,30.23,North,0,3.1,6.3,66,0.00,,,0.00,WUHU216HW,2013-01-23 15:21:00,
2013-01-23 10:26:00,11.9,3.0,30.23,WNW,293,2.2,5.6,67,0.00,,,0.00,WUHU216HW,2013-01-23 15:26:00,
2013-01-23 10:32:00,12.1,2.8,30.23,North,0,2.9,6.3,66,0.00,,,0.00,WUHU216HW,2013-01-23 15:32:00,
2013-01-23 10:37:00,12.6,3.3,30.23,North,0,5.4,6.3,66,0.00,,,0.00,WUHU216HW,2013-01-23 15:37:00,
2013-01-23 10:42:00,12.6,3.0,30.23,North,0,7.6,7.6,65,0.00,,,0.00,WUHU216HW,2013-01-23 15:42:00,
2013-01-23 10:47:00,12.6,3.0,30.23,NW,315,2.5,7.6,65,0.00,,,0.00,WUHU216HW,2013-01-23 15:47:00,
2013-01-23 10:52:00,13.1,3.9,30.23,SW,225,1.3,3.4,66,0.00,,,0.00,WUHU216HW,2013-01-23 15:52:00,
2013-01-23 10:57:00,13.5,3.9,30.22,North,0,1.8,3.4,65,0.00,,,0.00,WUHU216HW,2013-01-23 15:57:00,
2013-01-23 11:02:00,13.7,3.1,30.22,North,0,1.6,3.1,62,0.00,,,0.00,WUHU216HW,2013-01-23 16:02:00,
2013-01-23 11:07:00,13.5,2.5,30.22,NNE,23,7.2,7.2,61,0.00,,,0.00,WUHU216HW,2013-01-23 16:07:00,
2013-01-23 11:12:00,13.7,3.7,30.22,NNE,23,4.9,7.2,64,0.00,,,0.00,WUHU216HW,2013-01-23 16:12:00,
2013-01-23 11:17:00,13.9,3.3,30.22,NNE,23,4.7,6.0,62,0.00,,,0.00,WUHU216HW,2013-01-23 16:17:00,
2013-01-23 11:22:00,13.7,3.1,30.21,NW,315,1.6,6.0,62,0.00,,,0.00,WUHU216HW,2013-01-23 16:22:00,
2013-01-23 11:27:00,13.9,2.9,30.21,North,0,2.9,7.8,61,0.00,,,0.00,WUHU216HW,2013-01-23 16:27:00,
2013-01-23 11:32:00,13.9,3.3,30.21,SW,225,0.2,7.8,62,0.00,,,0.00,WUHU216HW,2013-01-23 16:32:00,
2013-01-23 11:37:00,14.6,4.2,30.21,SW,225,1.1,4.5,63,0.00,,,0.00,WUHU216HW,2013-01-23 16:37:00,
2013-01-23 11:42:00,15.1,4.1,30.21,West,270,1.8,3.1,61,0.00,,,0.00,WUHU216HW,2013-01-23 16:42:00,
2013-01-23 11:47:00,15.5,4.3,30.21,North,0,3.4,5.1,61,0.00,,,0.00,WUHU216HW,2013-01-23 16:47:00,
2013-01-23 11:52:00,15.1,3.7,30.20,North,0,1.3,5.4,60,0.00,,,0.00,WUHU216HW,2013-01-23 16:52:00,
2013-01-23 11:57:00,14.8,3.3,30.20,WSW,248,1.8,5.4,60,0.00,,,0.00,WUHU216HW,2013-01-23 16:57:00,
2013-01-23 12:02:00,15.1,4.1,30.20,NW,315,2.9,4.5,61,0.00,,,0.00,WUHU216HW,2013-01-23 17:02:00,
2013-01-23 12:07:00,15.5,4.3,30.20,West,270,2.5,2.9,61,0.00,,,0.00,WUHU216HW,2013-01-23 17:07:00,
2013-01-23 12:12:00,15.5,3.6,30.19,North,0,2.7,6.7,59,0.00,,,0.00,WUHU216HW,2013-01-23 17:12:00,
2013-01-23 12:17:00,16.2,4.7,30.19,North,0,4.5,6.7,60,0.00,,,0.00,WUHU216HW,2013-01-23 17:17:00,
2013-01-23 12:22:00,16.2,4.0,30.19,WNW,293,1.8,6.7,58,0.00,,,0.00,WUHU216HW,2013-01-23 17:22:00,
2013-01-23 12:27:00,16.6,5.4,30.18,South,180,1.1,6.7,61,0.00,,,0.00,WUHU216HW,2013-01-23 17:27:00,
2013-01-23 12:32:00,17.3,5.4,30.18,North,0,4.9,4.9,59,0.00,,,0.00,WUHU216HW,2013-01-23 17:32:00,
2013-01-23 12:37:00,17.5,6.3,30.17,North,0,5.8,5.8,61,0.00,,,0.00,WUHU216HW,2013-01-23 17:37:00,
2013-01-23 12:42:00,17.8,5.5,30.17,North,0,5.6,5.8,58,0.00,,,0.00,WUHU216HW,2013-01-23 17:42:00,
2013-01-23 12:47:00,16.2,3.2,30.17,North,0,4.3,7.4,56,0.00,,,0.00,WUHU216HW,2013-01-23 17:47:00,
2013-01-23 12:52:00,16.4,4.5,30.17,NNW,338,0.7,7.4,59,0.00,,,0.00,WUHU216HW,2013-01-23 17:52:00,
2013-01-23 12:57:00,16.2,4.0,30.16,NNE,23,2.9,6.9,58,0.00,,,0.00,WUHU216HW,2013-01-23 17:57:00,
2013-01-23 13:02:00,16.4,4.5,30.16,NNW,338,2.5,6.9,59,0.00,,,0.00,WUHU216HW,2013-01-23 18:02:00,
2013-01-23 13:07:00,16.6,3.2,30.16,North,0,2.0,6.9,55,0.00,,,0.00,WUHU216HW,2013-01-23 18:07:00,
2013-01-23 13:12:00,15.8,3.2,30.16,NNE,23,5.6,9.2,57,0.00,,,0.00,WUHU216HW,2013-01-23 18:12:00,
2013-01-23 13:17:00,15.7,3.4,30.16,NNE,23,2.7,9.2,58,0.00,,,0.00,WUHU216HW,2013-01-23 18:17:00,
2013-01-23 13:22:00,15.8,4.3,30.16,SW,225,2.0,6.3,60,0.00,,,0.00,WUHU216HW,2013-01-23 18:22:00,
2013-01-23 13:27:00,16.2,4.7,30.16,West,270,2.2,4.0,60,0.00,,,0.00,WUHU216HW,2013-01-23 18:27:00,
2013-01-23 13:32:00,16.2,4.7,30.15,NNW,338,1.8,2.9,60,0.00,,,0.00,WUHU216HW,2013-01-23 18:32:00,
2013-01-23 13:37:00,16.4,5.2,30.15,NW,315,1.1,5.4,61,0.00,,,0.00,WUHU216HW,2013-01-23 18:37:00,
2013-01-23 13:42:00,16.6,5.4,30.15,South,180,0.9,5.4,61,0.00,,,0.00,WUHU216HW,2013-01-23 18:42:00,
2013-01-23 13:47:00,16.9,5.4,30.15,NNW,338,6.3,6.3,60,0.00,,,0.00,WUHU216HW,2013-01-23 18:47:00,
2013-01-23 13:52:00,16.2,4.7,30.15,North,0,1.1,7.8,60,0.00,,,0.00,WUHU216HW,2013-01-23 18:52:00,
2013-01-23 13:57:00,15.7,4.1,30.15,West,270,0.7,7.8,60,0.00,,,0.00,WUHU216HW,2013-01-23 18:57:00,
2013-01-23 14:03:00,15.5,4.3,30.15,SW,225,1.1,6.3,61,0.00,,,0.00,WUHU216HW,2013-01-23 19:03:00,
2013-01-23 14:08:00,16.0,4.9,30.15,West,270,0.9,6.0,61,0.00,,,0.00,WUHU216HW,2013-01-23 19:08:00,
2013-01-23 14:12:00,16.4,5.2,30.14,North,0,2.0,2.0,61,0.00,,,0.00,WUHU216HW,2013-01-23 19:12:00,
2013-01-23 14:18:00,16.2,5.1,30.14,WNW,293,2.0,4.3,61,0.00,,,0.00,WUHU216HW,2013-01-23 19:18:00,
2013-01-23 14:23:00,16.7,5.6,30.14,NW,315,0.4,4.3,61,0.00,,,0.00,WUHU216HW,2013-01-23 19:23:00,
2013-01-23 14:28:00,16.9,5.8,30.14,West,270,2.9,2.9,61,0.00,,,0.00,WUHU216HW,2013-01-23 19:28:00,
2013-01-23 14:33:00,16.9,5.4,30.14,NNW,338,1.8,4.0,60,0.00,,,0.00,WUHU216HW,2013-01-23 19:33:00,
2013-01-23 14:38:00,16.9,5.4,30.14,SW,225,1.1,4.0,60,0.00,,,0.00,WUHU216HW,2013-01-23 19:38:00,
2013-01-23 14:43:00,16.9,5.1,30.13,WSW,248,1.6,4.0,59,0.00,,,0.00,WUHU216HW,2013-01-23 19:43:00,
2013-01-23 14:48:00,17.3,5.8,30.13,NNE,23,4.0,4.0,60,0.00,,,0.00,WUHU216HW,2013-01-23 19:48:00,
2013-01-23 14:53:00,17.1,5.6,30.13,West,270,2.2,4.0,60,0.00,,,0.00,WUHU216HW,2013-01-23 19:53:00,
2013-01-23 14:58:00,17.1,5.2,30.13,SSW,203,0.4,2.5,59,0.00,,,0.00,WUHU216HW,2013-01-23 19:58:00,
2013-01-23 15:03:00,16.9,5.1,30.13,NNE,23,5.1,5.1,59,0.00,,,0.00,WUHU216HW,2013-01-23 20:03:00,
2013-01-23 15:08:00,16.6,4.2,30.13,WNW,293,0.7,5.1,58,0.00,,,0.00,WUHU216HW,2013-01-23 20:08:00,
2013-01-23 15:13:00,16.9,5.1,30.13,West,270,0.7,4.3,59,0.00,,,0.00,WUHU216HW,2013-01-23 20:13:00,
2013-01-23 15:18:00,17.1,5.2,30.13,West,270,0.2,1.8,59,0.00,,,0.00,WUHU216HW,2013-01-23 20:18:00,
2013-01-23 15:23:00,17.1,4.8,30.13,North,0,3.6,4.0,58,0.00,,,0.00,WUHU216HW,2013-01-23 20:23:00,
2013-01-23 15:28:00,16.9,4.6,30.13,West,270,0.4,4.0,58,0.00,,,0.00,WUHU216HW,2013-01-23 20:28:00,
2013-01-23 15:33:00,16.9,5.1,30.13,ESE,113,1.6,3.4,59,0.00,,,0.00,WUHU216HW,2013-01-23 20:33:00,
2013-01-23 15:38:00,16.9,5.1,30.13,North,0,1.8,3.4,59,0.00,,,0.00,WUHU216HW,2013-01-23 20:38:00,
2013-01-23 15:43:00,16.9,5.1,30.13,SSW,203,0.7,1.8,59,0.00,,,0.00,WUHU216HW,2013-01-23 20:43:00,
2013-01-23 15:48:00,17.1,5.2,30.13,SW,225,0.9,0.9,59,0.00,,,0.00,WUHU216HW,2013-01-23 20:48:00,
2013-01-23 15:53:00,16.9,5.1,30.12,SE,135,0.9,1.1,59,0.00,,,0.00,WUHU216HW,2013-01-23 20:53:00,
2013-01-23 15:58:00,17.1,5.2,30.12,SSW,203,0.9,1.3,59,0.00,,,0.00,WUHU216HW,2013-01-23 20:58:00,
2013-01-23 16:03:00,17.1,5.2,30.12,SW,225,0.7,1.3,59,0.00,,,0.00,WUHU216HW,2013-01-23 21:03:00,
2013-01-23 16:08:00,17.1,4.8,30.12,SSW,203,0.7,1.1,58,0.00,,,0.00,WUHU216HW,2013-01-23 21:08:00,
2013-01-23 16:13:00,16.9,5.1,30.12,SSE,158,1.1,1.8,59,0.00,,,0.00,WUHU216HW,2013-01-23 21:13:00,
2013-01-23 16:18:00,16.7,4.9,30.12,SSW,203,0.7,1.8,59,0.00,,,0.00,WUHU216HW,2013-01-23 21:18:00,
2013-01-23 16:23:00,16.7,4.9,30.12,SW,225,0.2,1.1,59,0.00,,,0.00,WUHU216HW,2013-01-23 21:23:00,
2013-01-23 16:28:00,16.6,4.7,30.12,NW,315,0.7,1.1,59,0.00,,,0.00,WUHU216HW,2013-01-23 21:28:00,
2013-01-23 16:33:00,16.2,4.0,30.12,NW,315,0.9,2.2,58,0.00,,,0.00,WUHU216HW,2013-01-23 21:33:00,
2013-01-23 16:38:00,16.2,4.0,30.12,SE,135,0.4,2.2,58,0.00,,,0.00,WUHU216HW,2013-01-23 21:38:00,
2013-01-23 16:43:00,16.0,4.2,30.12,WSW,248,0.2,1.8,59,0.00,,,0.00,WUHU216HW,2013-01-23 21:43:00,
2013-01-23 16:48:00,16.0,4.2,30.12,WSW,248,0.7,1.8,59,0.00,,,0.00,WUHU216HW,2013-01-23 21:48:00,
2013-01-23 16:54:00,15.7,3.8,30.12,SW,225,0.2,0.9,59,0.00,,,0.00,WUHU216HW,2013-01-23 21:54:00,
2013-01-23 16:59:00,15.7,3.8,30.12,SSW,203,1.1,1.1,59,0.00,,,0.00,WUHU216HW,2013-01-23 21:59:00,
2013-01-23 17:04:00,15.5,4.0,30.11,SW,225,0.4,1.1,60,0.00,,,0.00,WUHU216HW,2013-01-23 22:04:00,
2013-01-23 17:09:00,15.3,3.4,30.11,West,270,1.1,3.4,59,0.00,,,0.00,WUHU216HW,2013-01-23 22:09:00,
2013-01-23 17:14:00,15.1,3.3,30.12,West,270,0.0,3.4,59,0.00,,,0.00,WUHU216HW,2013-01-23 22:14:00,
2013-01-23 17:19:00,15.1,3.7,30.11,West,270,2.5,2.5,60,0.00,,,0.00,WUHU216HW,2013-01-23 22:19:00,
2013-01-23 17:24:00,14.9,3.2,30.11,SE,135,0.2,2.5,59,0.00,,,0.00,WUHU216HW,2013-01-23 22:24:00,
2013-01-23 17:29:00,14.9,3.2,30.11,NNE,23,0.0,1.8,59,0.00,,,0.00,WUHU216HW,2013-01-23 22:29:00,
2013-01-23 17:34:00,14.9,3.5,30.11,SW,225,0.0,0.4,60,0.00,,,0.00,WUHU216HW,2013-01-23 22:34:00,
2013-01-23 17:39:00,14.8,3.3,30.11,WNW,293,0.2,0.4,60,0.00,,,0.00,WUHU216HW,2013-01-23 22:39:00,
2013-01-23 17:44:00,14.8,3.3,30.11,WNW,293,0.4,2.9,60,0.00,,,0.00,WUHU216HW,2013-01-23 22:44:00,
2013-01-23 17:49:00,14.8,3.3,30.11,NNW,338,0.7,2.9,60,0.00,,,0.00,WUHU216HW,2013-01-23 22:49:00,
2013-01-23 17:54:00,14.8,3.7,30.11,North,0,1.6,2.0,61,0.00,,,0.00,WUHU216HW,2013-01-23 22:54:00,
2013-01-23 17:59:00,14.6,3.5,30.10,North,0,1.6,1.6,61,0.00,,,0.00,WUHU216HW,2013-01-23 22:59:00,
2013-01-23 18:04:00,14.6,3.5,30.10,NNW,338,0.0,1.6,61,0.00,,,0.00,WUHU216HW,2013-01-23 23:04:00,
2013-01-23 18:09:00,14.6,3.5,30.10,WNW,293,0.0,1.1,61,0.00,,,0.00,WUHU216HW,2013-01-23 23:09:00,
2013-01-23 18:14:00,14.6,3.9,30.10,NNE,23,1.3,1.3,62,0.00,,,0.00,WUHU216HW,2013-01-23 23:14:00,
2013-01-23 18:19:00,14.4,3.7,30.10,NNE,23,0.0,1.3,62,0.00,,,0.00,WUHU216HW,2013-01-23 23:19:00,
2013-01-23 18:24:00,14.4,3.7,30.09,SE,135,0.2,0.4,62,0.00,,,0.00,WUHU216HW,2013-01-23 23:24:00,
2013-01-23 18:29:00,14.4,4.1,30.10,South,180,0.0,0.4,63,0.00,,,0.00,WUHU216HW,2013-01-23 23:29:00,
2013-01-23 18:34:00,14.2,4.2,30.09,NW,315,0.4,0.4,64,0.00,,,0.00,WUHU216HW,2013-01-23 23:34:00,
2013-01-23 18:39:00,14.2,4.2,30.09,NW,315,0.0,0.4,64,0.00,,,0.00,WUHU216HW,2013-01-23 23:39:00,
2013-01-23 18:44:00,14.0,4.1,30.09,NW,315,0.0,0.2,64,0.00,,,0.00,WUHU216HW,2013-01-23 23:44:00,
2013-01-23 18:49:00,14.0,4.4,30.09,NW,315,0.0,0.0,65,0.00,,,0.00,WUHU216HW,2013-01-23 23:49:00,
2013-01-23 18:54:00,14.0,4.4,30.09,SSW,203,0.0,0.0,65,0.00,,,0.00,WUHU216HW,2013-01-23 23:54:00,
2013-01-23 18:59:00,14.0,4.8,30.09,South,180,0.0,0.0,66,0.00,,,0.00,WUHU216HW,2013-01-23 23:59:00,
2013-01-23 19:04:00,14.0,4.8,30.08,SSE,158,0.0,0.0,66,0.00,,,0.00,WUHU216HW,2013-01-24 00:04:00,
2013-01-23 19:09:00,13.9,4.6,30.08,SSW,203,0.0,0.4,66,0.00,,,0.00,WUHU216HW,2013-01-24 00:09:00,
2013-01-23 19:14:00,13.9,5.0,30.08,South,180,0.0,0.4,67,0.00,,,0.00,WUHU216HW,2013-01-24 00:14:00,
2013-01-23 19:19:00,13.9,5.0,30.08,SSE,158,0.0,0.2,67,0.00,,,0.00,WUHU216HW,2013-01-24 00:19:00,
2013-01-23 19:24:00,13.9,5.2,30.08,SSE,158,0.0,0.0,68,0.00,,,0.00,WUHU216HW,2013-01-24 00:24:00,
2013-01-23 19:29:00,13.7,5.0,30.08,WNW,293,0.0,0.0,68,0.00,,,0.00,WUHU216HW,2013-01-24 00:29:00,
2013-01-23 19:34:00,13.7,4.8,30.08,WNW,293,0.0,0.0,67,0.00,,,0.00,WUHU216HW,2013-01-24 00:34:00,
2013-01-23 19:39:00,13.7,4.8,30.08,WNW,293,0.0,0.0,67,0.00,,,0.00,WUHU216HW,2013-01-24 00:39:00,
2013-01-23 19:44:00,13.7,4.8,30.08,WNW,293,0.0,0.0,67,0.00,,,0.00,WUHU216HW,2013-01-24 00:44:00,
2013-01-23 19:49:00,13.7,5.0,30.08,NE,45,0.0,0.2,68,0.00,,,0.00,WUHU216HW,2013-01-24 00:49:00,
2013-01-23 19:54:00,13.7,5.0,30.08,NE,45,0.0,0.2,68,0.00,,,0.00,WUHU216HW,2013-01-24 00:54:00,
2013-01-23 19:59:00,13.7,5.0,30.08,NE,45,0.0,0.0,68,0.00,,,0.00,WUHU216HW,2013-01-24 00:59:00,
2013-01-23 20:04:00,13.5,4.9,30.08,NE,45,0.0,0.0,68,0.00,,,0.00,WUHU216HW,2013-01-24 01:04:00,
2013-01-23 20:09:00,13.5,4.9,30.08,NE,45,0.0,0.0,68,0.00,,,0.00,WUHU216HW,2013-01-24 01:09:00,
2013-01-23 20:14:00,13.5,4.9,30.07,NE,45,0.0,0.0,68,0.00,,,0.00,WUHU216HW,2013-01-24 01:14:00,
2013-01-23 20:19:00,13.5,4.9,30.08,NE,45,0.0,0.0,68,0.00,,,0.00,WUHU216HW,2013-01-24 01:19:00,
2013-01-23 20:24:00,13.3,5.0,30.07,NE,45,0.0,0.0,69,0.00,,,0.00,WUHU216HW,2013-01-24 01:24:00,
2013-01-23 20:29:00,13.5,5.2,30.07,NE,45,0.0,0.0,69,0.00,,,0.00,WUHU216HW,2013-01-24 01:29:00,
2013-01-23 20:34:00,13.3,5.0,30.07,NE,45,0.0,0.0,69,0.00,,,0.00,WUHU216HW,2013-01-24 01:34:00,
2013-01-23 20:39:00,13.3,5.4,30.07,NE,45,0.0,0.0,70,0.00,,,0.00,WUHU216HW,2013-01-24 01:39:00,
2013-01-23 20:44:00,13.3,5.4,30.07,NE,45,0.0,0.0,70,0.00,,,0.00,WUHU216HW,2013-01-24 01:44:00,
2013-01-23 20:49:00,13.3,5.7,30.07,NE,45,0.0,0.0,71,0.00,,,0.00,WUHU216HW,2013-01-24 01:49:00,
2013-01-23 20:54:00,13.3,5.7,30.07,NE,45,0.0,0.0,71,0.00,,,0.00,WUHU216HW,2013-01-24 01:54:00,
2013-01-23 20:59:00,13.3,5.7,30.07,NE,45,0.0,0.0,71,0.00,,,0.00,WUHU216HW,2013-01-24 01:59:00,
2013-01-23 21:04:00,13.3,5.7,30.07,NE,45,0.0,0.0,71,0.00,,,0.00,WUHU216HW,2013-01-24 02:04:00,
2013-01-23 21:09:00,13.3,5.9,30.07,NE,45,0.0,0.0,72,0.00,,,0.00,WUHU216HW,2013-01-24 02:09:00,
2013-01-23 21:15:00,13.1,5.8,30.06,NE,45,0.0,0.0,72,0.00,,,0.00,WUHU216HW,2013-01-24 02:15:00,
2013-01-23 21:20:00,13.0,5.6,30.06,NE,45,0.0,0.0,72,0.00,,,0.00,WUHU216HW,2013-01-24 02:20:00,
2013-01-23 21:25:00,13.0,6.0,30.06,NE,45,0.0,0.0,73,0.00,,,0.00,WUHU216HW,2013-01-24 02:25:00,
2013-01-23 21:30:00,13.0,6.2,30.06,NE,45,0.0,0.0,74,0.00,,,0.00,WUHU216HW,2013-01-24 02:30:00,
2013-01-23 21:35:00,13.0,6.0,30.06,NE,45,0.0,0.0,73,0.00,,,0.00,WUHU216HW,2013-01-24 02:35:00,
2013-01-23 21:40:00,13.1,6.4,30.06,NE,45,0.0,0.0,74,0.00,,,0.00,WUHU216HW,2013-01-24 02:40:00,
2013-01-23 21:45:00,13.1,6.4,30.06,NE,45,0.0,0.0,74,0.00,,,0.00,WUHU216HW,2013-01-24 02:45:00,
2013-01-23 21:50:00,13.1,6.4,30.06,NE,45,0.0,0.0,74,0.00,,,0.00,WUHU216HW,2013-01-24 02:50:00,
2013-01-23 21:55:00,13.1,6.4,30.06,NE,45,0.0,0.0,74,0.00,,,0.00,WUHU216HW,2013-01-24 02:55:00,
2013-01-23 22:00:00,13.1,6.7,30.06,NE,45,0.0,0.0,75,0.00,,,0.00,WUHU216HW,2013-01-24 03:00:00,
2013-01-23 22:05:00,13.1,6.7,30.06,NE,45,0.0,0.0,75,0.00,,,0.00,WUHU216HW,2013-01-24 03:05:00,
2013-01-23 22:10:00,13.1,6.7,30.06,NE,45,0.0,0.0,75,0.00,,,0.00,WUHU216HW,2013-01-24 03:10:00,
2013-01-23 22:15:00,13.1,6.9,30.06,NE,45,0.0,0.0,76,0.00,,,0.00,WUHU216HW,2013-01-24 03:15:00,
2013-01-23 22:20:00,13.3,7.1,30.05,ENE,68,0.0,0.0,76,0.00,,,0.00,WUHU216HW,2013-01-24 03:20:00,
2013-01-23 22:25:00,13.3,7.1,30.05,ESE,113,0.0,0.0,76,0.00,,,0.00,WUHU216HW,2013-01-24 03:25:00,
2013-01-23 22:30:00,13.3,7.1,30.05,ESE,113,0.0,0.2,76,0.00,,,0.00,WUHU216HW,2013-01-24 03:30:00,
2013-01-23 22:35:00,13.3,7.1,30.05,ESE,113,0.0,0.2,76,0.00,,,0.00,WUHU216HW,2013-01-24 03:35:00,
2013-01-23 22:40:00,13.3,7.1,30.05,ESE,113,0.0,0.4,76,0.00,,,0.00,WUHU216HW,2013-01-24 03:40:00,
2013-01-23 22:45:00,13.3,7.1,30.05,ESE,113,0.0,0.4,76,0.00,,,0.00,WUHU216HW,2013-01-24 03:45:00,
2013-01-23 22:51:00,13.1,6.9,30.04,ESE,113,0.0,0.0,76,0.00,,,0.00,WUHU216HW,2013-01-24 03:51:00,
2013-01-23 22:56:00,13.1,6.9,30.04,ESE,113,0.0,0.0,76,0.00,,,0.00,WUHU216HW,2013-01-24 03:56:00,
2013-01-23 23:01:00,13.1,6.9,30.04,ESE,113,0.0,0.0,76,0.00,,,0.00,WUHU216HW,2013-01-24 04:01:00,
2013-01-23 23:06:00,13.1,6.9,30.04,ESE,113,0.0,0.0,76,0.00,,,0.00,WUHU216HW,2013-01-24 04:06:00,
2013-01-23 23:11:00,13.1,6.9,30.04,ESE,113,0.0,0.0,76,0.00,,,0.00,WUHU216HW,2013-01-24 04:11:00,
2013-01-23 23:16:00,13.1,7.2,30.04,ESE,113,0.0,0.0,77,0.00,,,0.00,WUHU216HW,2013-01-24 04:16:00,
2013-01-23 23:21:00,13.1,7.2,30.04,ESE,113,0.0,0.0,77,0.00,,,0.00,WUHU216HW,2013-01-24 04:21:00,
2013-01-23 23:26:00,13.1,7.2,30.03,ESE,113,0.0,0.0,77,0.00,,,0.00,WUHU216HW,2013-01-24 04:26:00,
2013-01-23 23:31:00,13.3,7.4,30.03,ESE,113,0.0,0.0,77,0.00,,,0.00,WUHU216HW,2013-01-24 04:31:00,
2013-01-23 23:36:00,13.3,7.4,30.03,ESE,113,0.0,0.0,77,0.00,,,0.00,WUHU216HW,2013-01-24 04:36:00,
2013-01-23 23:41:00,13.5,7.6,30.03,ESE,113,0.0,0.0,77,0.00,,,0.00,WUHU216HW,2013-01-24 04:41:00,
2013-01-23 23:46:00,13.5,7.6,30.02,ESE,113,0.0,0.2,77,0.00,,,0.00,WUHU216HW,2013-01-24 04:46:00,
2013-01-23 23:51:00,13.5,7.6,30.02,ESE,113,0.0,0.2,77,0.00,,,0.00,WUHU216HW,2013-01-24 04:51:00,
2013-01-23 23:56:00,13.5,7.6,30.02,ESE,113,0.0,0.0,77,0.00,,,0.00,WUHU216HW,2013-01-24 04:56:00,